EHI
0 0 0 0 0 0 0 0 0 0 0 0 0 0 0 0 0 0 0 2 5 10 23 46 69 81 82 72 53 46 59 76 86 91 92 89 78 67 61 55 46 40 39 40
0 0 0 0 0 0 0 0 0 0 0 0 0 0 0 0 0 0 0 3 11 23 38 57 75 81 79 70 58 53 60 72 82 88 90 86 74 59 49 43 36 29 22 20
0 0 0 0 0 0 0 0 0 0 0 0 0 0 0 0 0 0 1 7 23 44 57 63 64 62 57 53 50 50 52 57 63 68 70 68 57 41 28 21 16 11 6 3
0 0 0 0 0 0 0 0 0 0 0 0 0 0 0 0 0 1 4 14 33 52 54 45 34 27 23 22 26 30 32 32 33 35 37 35 27 17 9 4 2 1 0 0
0 0 0 0 0 0 0 0 0 0 0 0 0 0 0 0 1 2 6 16 29 35 29 17 9 5 3 4 6 10 12 13 12 12 11 10 6 2 1 0 0 0 0 0
0 0 0 0 0 0 0 0 0 0 0 0 0 0 1 2 3 3 5 10 14 13 8 3 1 0 0 0 1 2 2 3 3 2 2 1 0 0 0 0 0 0 0 0
0 0 0 0 0 0 0 0 0 0 0 0 0 0 2 6 6 5 3 4 4 2 1 0 0 0 0 0 0 0 0 0 0 0 0 0 0 0 0 0 0 0 0 0
0 0 0 0 0 0 0 0 0 0 0 0 0 0 6 14 15 8 3 1 0 0 0 0 0 0 0 0 0 0 0 0 0 0 0 0 0 0 0 0 0 0 0 0
0 0 0 0 0 0 0 0 0 0 0 0 0 1 10 24 24 12 2 0 0 0 0 0 0 0 0 0 0 0 0 0 0 0 0 0 0 0 0 0 0 0 0 0
0 0 0 0 0 0 0 0 0 0 0 0 0 2 11 25 24 10 1 0 0 0 0 0 0 0 0 0 0 0 0 0 0 0 0 0 0 0 0 0 0 0 0 0
0 0 0 0 0 0 0 0 0 0 0 0 0 1 6 16 17 8 1 0 0 0 0 0 0 0 0 0 0 0 0 0 0 0 0 0 0 0 0 0 0 0 0 0
0 0 0 0 0 0 0 0 0 0 0 0 0 0 4 11 14 8 1 0 0 0 0 0 0 0 0 0 0 0 0 0 0 0 0 0 0 0 0 0 0 0 0 0
0 0 0 0 0 0 0 0 0 0 0 0 0 3 10 19 18 8 1 0 0 0 0 0 0 0 0 0 0 0 0 0 0 0 0 0 0 0 0 0 0 0 0 0
0 0 0 0 0 0 0 0 0 0 0 0 0 6 18 24 18 6 1 0 0 0 0 0 0 0 0 0 0 0 0 0 0 0 0 0 0 0 0 0 0 0 0 0
0 0 0 0 0 0 0 0 0 0 0 0 1 7 15 16 9 3 0 0 0 0 0 0 0 0 0 0 0 0 0 0 0 0 0 0 0 0 0 0 0 0 0 0
0 0 0 0 0 0 0 0 0 0 0 0 0 2 5 4 2 0 0 0 0 0 0 0 0 0 0 0 0 0 0 0 0 0 0 0 0 0 0 0 0 0 0 0
0 0 0 0 0 0 0 0 0 0 0 0 0 0 0 0 0 0 0 0 0 0 0 0 0 0 0 0 0 0 0 0 0 0 0 0 0 0 0 0 0 0 0 0
0 0 0 0 0 0 0 0 0 0 0 0 0 0 0 0 0 0 0 0 0 0 0 0 0 0 0 0 0 0 0 0 0 0 0 0 0 0 0 0 0 0 0 0
0 0 0 0 0 0 0 0 0 0 0 0 0 0 0 0 0 0 0 0 0 0 0 0 0 0 0 0 0 0 0 0 0 0 0 0 0 0 0 0 0 0 0 0
0 0 0 0 0 0 0 0 0 0 0 0 0 0 0 0 0 0 0 0 0 0 0 0 0 0 0 0 0 0 0 0 0 0 0 0 0 0 0 0 0 0 0 0
0 0 0 0 0 0 0 0 0 0 0 0 0 0 0 0 0 0 0 0 0 0 0 0 0 0 0 0 0 0 0 0 0 0 0 0 0 0 0 0 0 0 0 0
0 0 0 0 0 0 0 0 0 0 0 0 0 0 0 0 0 0 0 0 0 0 0 0 0 0 0 0 0 0 0 0 0 0 0 0 0 0 0 0 0 0 0 0
0 0 0 0 0 0 0 0 0 0 0 0 0 0 0 0 0 0 0 0 0 0 0 0 0 0 0 0 0 0 0 0 0 0 0 0 0 0 0 0 0 0 0 0
0 0 0 0 0 0 0 0 0 0 0 0 0 0 0 0 0 0 0 0 0 0 0 0 0 0 0 0 0 0 0 0 0 0 0 0 0 0 0 0 0 0 0 0
0 0 0 0 0 0 0 0 0 0 0 0 0 0 0 0 0 0 0 0 0 0 0 0 0 0 0 0 0 0 0 0 0 0 0 0 0 0 0 0 0 0 0 0
0 0 0 0 0 0 0 0 0 0 0 0 0 0 0 0 0 0 0 0 0 0 0 0 0 0 0 0 0 0 0 0 0 0 0 0 0 0 0 0 0 0 0 0
Wind_Speed
15 14 16 18 19 18 20 21 18 13 8 8 8 9 2 5 2 3 3 9 13 16 16 16 15 14 14 16 14 9 4 3 2 2 1 1 0 1 2 2 5 5 5 6
16 19 20 20 19 20 21 20 16 13 8 5 6 7 6 5 3 5 6 9 10 14 16 17 18 17 16 14 10 8 7 6 6 5 3 3 3 4 5 6 8 8 7 6
21 19 21 21 20 20 14 14 16 16 14 10 10 11 9 9 7 5 6 9 11 14 16 17 17 16 16 14 12 10 9 8 8 7 5 4 4 4 5 6 5 6 6 4
21 21 22 18 19 16 13 16 18 17 16 12 14 13 14 15 12 9 10 12 15 17 17 15 15 15 15 15 14 14 12 11 10 10 9 9 7 5 4 3 1 4 5 6
19 20 20 19 14 14 16 16 18 18 15 16 15 16 13 18 16 12 12 15 17 17 16 15 15 14 14 14 14 13 13 12 11 11 11 10 8 6 5 5 6 6 7 8
20 20 18 19 16 16 18 17 15 11 12 17 18 16 13 18 20 17 15 16 17 17 17 16 15 14 14 13 13 12 12 11 10 11 10 10 9 8 8 7 7 7 6 7
21 20 18 14 16 19 17 13 9 11 13 15 16 18 5 21 24 22 19 18 17 17 16 16 15 14 13 12 11 10 10 8 8 8 7 7 7 7 8 8 8 8 8 7
19 16 20 16 16 13 14 15 14 14 14 14 13 5 9 14 20 20 18 18 16 16 16 16 14 12 11 10 9 8 8 7 7 6 5 5 5 6 7 8 9 9 8 8
19 16 16 20 18 17 17 16 18 17 19 16 6 11 11 14 18 18 18 17 16 16 15 14 13 11 10 9 7 6 6 5 6 6 5 5 6 7 8 8 8 8 8 9
20 20 17 12 17 20 19 16 11 15 15 16 16 13 15 19 19 18 17 16 16 15 14 13 11 9 7 6 6 5 5 5 5 6 7 8 8 8 8 8 8 8 8 8
20 19 21 16 17 17 16 16 16 14 14 16 15 4 15 21 19 18 16 16 15 14 13 11 9 8 6 6 6 6 7 7 7 8 7 7 8 8 8 7 8 8 8 8
13 14 18 22 17 18 18 18 16 13 14 13 12 4 11 18 18 16 15 15 14 13 11 10 8 7 7 7 6 7 7 7 8 8 7 7 7 7 8 8 8 8 7 8
10 9 13 17 18 16 17 18 16 14 12 13 14 7 9 18 17 16 16 15 13 11 10 10 8 6 6 5 6 7 7 7 8 8 7 6 7 7 8 8 8 7 7 7
4 11 16 19 17 17 18 19 18 17 14 14 16 10 13 17 18 18 17 15 12 10 7 5 6 7 6 6 8 9 8 8 8 8 8 7 7 7 7 7 7 6 6 6
9 15 19 22 23 24 16 12 17 20 20 18 10 16 17 15 16 17 15 13 11 8 6 7 7 6 6 8 8 9 9 8 8 8 8 7 7 7 7 6 5 5 6 8
9 15 19 23 25 25 22 12 16 17 19 17 5 16 15 19 16 15 13 11 9 7 8 8 6 6 7 8 9 9 8 7 7 8 8 8 6 7 6 5 5 6 6 7
14 13 19 21 24 24 22 14 17 15 12 9 8 14 20 20 17 15 12 9 8 9 9 7 7 7 7 7 7 7 7 7 6 7 8 7 6 6 6 7 7 7 6 7
16 14 11 18 23 28 15 8 12 1 11 10 20 22 20 18 16 13 10 11 11 11 9 8 7 6 6 5 5 5 7 7 6 6 6 6 6 7 6 6 7 7 6 6
16 15 11 13 22 25 10 3 4 9 13 17 22 21 21 20 18 14 13 13 12 11 9 7 5 4 4 3 4 6 7 5 6 7 6 7 7 8 8 7 7 6 6 6
20 15 10 12 17 18 9 5 5 13 10 15 19 20 19 17 11 11 11 12 11 9 7 5 3 3 3 3 4 7 6 5 6 7 6 5 5 6 8 5 5 5 5 6
16 19 17 16 12 3 1 9 10 8 9 16 17 17 14 11 12 13 13 12 10 8 6 3 3 3 2 2 4 6 6 6 6 7 7 6 5 5 5 4 4 4 4 6
7 12 19 14 7 3 7 12 9 8 16 17 18 19 19 17 16 14 13 11 9 8 5 3 2 2 1 1 4 6 6 6 7 7 7 7 6 6 5 4 4 3 3 5
4 7 5 1 4 8 1 8 12 16 18 19 19 19 17 15 14 13 11 9 8 7 4 2 3 2 1 1 3 6 6 6 7 7 7 6 7 4 3 4 4 4 3 6
4 5 3 8 11 14 13 12 12 15 18 19 18 17 16 15 13 12 10 8 8 6 4 3 2 1 1 3 4 4 4 6 7 7 7 7 5 5 6 4 4 5 7 9
4 2 3 12 14 16 14 14 16 17 18 18 17 17 16 13 12 11 9 9 7 6 4 3 3 3 3 3 3 5 6 5 6 6 6 10 7 8 6 6 8 9 10 9
3 2 3 7 11 14 17 17 19 18 17 17 17 16 14 12 10 10 10 8 7 6 4 3 2 3 4 4 5 5 5 6 7 7 7 8 6 6 7 7 8 13 10 9
Wind_Direction
217 224 230 232 233 242 256 270 284 278 233 197 209 244 194 74 9 324 37 68 80 79 67 67 78 90 97 111 131 156 141 84 72 62 52 95 64 36 39 49 58 44 26 19
231 230 235 241 241 242 247 260 272 280 272 209 229 217 136 106 78 43 67 76 71 75 70 66 68 72 80 92 107 107 86 46 32 33 27 20 18 14 27 33 31 17 7 355
229 239 234 235 249 253 251 261 266 267 263 202 215 219 171 141 130 123 106 91 79 74 76 70 64 65 72 78 82 87 83 59 38 26 27 29 25 20 23 22 24 350 313 321
241 246 251 247 239 241 242 248 256 262 267 244 209 228 180 151 144 137 122 107 94 84 80 77 74 71 72 75 77 77 73 61 48 44 40 40 34 25 24 6 11 319 328 349
243 245 247 247 242 249 251 250 260 252 249 264 248 235 173 154 149 132 117 106 102 99 96 93 90 87 84 81 77 71 66 58 50 47 44 40 34 20 10 356 353 350 346 339
252 255 245 244 231 240 249 249 257 263 251 245 247 252 185 168 150 139 130 120 115 113 110 105 100 94 87 83 79 72 64 57 50 43 38 32 21 2 348 343 341 345 334 319
243 247 252 243 236 230 235 243 235 234 239 248 242 248 198 155 149 149 141 134 128 125 119 111 102 93 86 80 77 74 66 58 51 45 34 21 8 337 332 349 345 334 318 315
240 229 233 227 235 233 216 236 243 244 241 239 245 268 77 130 140 137 138 136 133 126 114 108 103 99 93 83 74 68 61 50 36 30 22 358 358 346 342 347 331 317 319 330
259 254 223 216 214 232 230 219 238 256 266 274 234 124 153 140 135 141 145 143 134 119 115 112 107 100 95 90 74 57 48 35 26 6 4 353 4 351 339 333 328 334 337 326
254 274 284 248 213 211 235 247 243 238 252 262 264 193 163 160 157 156 155 145 129 124 120 113 109 101 94 96 96 63 45 22 13 360 1 355 355 350 345 340 344 337 331 327
236 250 264 257 219 223 218 235 255 263 252 253 260 258 142 167 163 161 156 143 136 136 130 126 119 112 101 68 49 35 23 11 5 359 3 5 360 354 346 341 339 333 326 322
278 256 246 249 248 224 234 232 231 244 256 260 268 121 160 159 153 154 153 144 139 134 128 118 103 87 67 46 27 21 6 1 360 357 6 12 356 349 339 335 329 325 325 323
333 305 266 247 248 238 231 240 240 236 239 247 255 145 148 143 148 149 144 130 120 110 96 91 80 66 50 22 13 5 358 5 1 357 358 359 345 336 326 322 320 322 324 324
276 279 271 262 257 252 231 235 243 246 242 241 247 139 150 150 145 138 129 124 121 111 105 105 94 65 28 12 14 359 358 8 357 346 340 336 330 324 317 320 323 330 338 336
254 262 265 269 271 270 263 243 260 269 264 255 231 144 158 144 136 130 129 129 128 142 144 109 77 40 12 16 11 0 4 3 345 331 333 333 327 324 327 333 337 345 343 338
254 245 258 264 265 266 266 238 233 253 268 279 121 131 143 128 128 132 137 143 148 136 104 83 57 31 30 18 6 1 354 341 334 330 326 322 332 333 337 336 345 346 338 334
295 259 243 250 257 262 255 254 252 240 219 228 150 136 133 132 137 138 139 139 123 98 81 62 46 42 36 25 13 349 329 321 316 309 309 319 336 335 346 344 343 338 331 330
267 268 258 250 246 247 250 261 274 222 95 97 117 134 132 129 121 111 105 96 84 76 65 56 39 28 35 28 2 322 306 303 313 329 346 350 350 347 342 331 334 330 327 325
253 245 245 250 245 240 203 182 215 132 122 122 124 126 123 119 110 95 83 83 82 79 71 59 33 20 46 18 340 310 307 337 6 11 3 359 352 336 321 329 333 329 329 328
250 237 229 244 250 241 184 140 93 111 130 134 130 129 132 139 138 121 107 98 93 87 73 48 10 34 58 10 331 320 327 3 360 352 344 330 321 311 310 330 332 331 326 332
265 241 227 234 243 300 144 141 121 137 152 135 128 124 117 98 99 113 109 101 98 97 81 25 24 63 60 346 322 320 326 346 337 329 316 302 298 294 305 325 312 318 338 342
299 268 239 229 202 184 223 163 156 138 131 129 121 109 105 105 109 115 113 111 109 106 85 62 87 111 177 267 299 304 321 330 322 312 304 302 295 294 308 301 301 329 5 357
268 282 286 298 124 138 106 72 95 115 120 118 114 114 117 118 119 114 108 103 97 92 92 113 125 132 175 270 291 311 327 328 320 310 307 304 302 296 312 315 333 349 14 13
299 324 99 97 117 118 108 104 105 108 109 111 114 118 121 118 114 108 103 97 95 100 122 142 124 76 29 330 309 311 339 339 336 339 342 326 324 8 345 333 1 12 26 25
286 320 89 115 120 114 116 117 115 111 110 113 114 111 108 107 105 105 101 98 107 124 127 103 54 16 351 323 347 14 7 345 345 340 355 332 356 20 347 15 44 59 65 64
355 48 92 124 136 128 126 123 121 118 115 110 105 101 99 98 97 98 101 111 128 133 132 107 51 4 348 22 35 29 11 2 360 352 6 341 8 9 360 15 69 77 105 105